Temp
5 5 5 6 5 5 5 5 5 5 5 5 5 5 5 5 5 5 4 6 6 7 8 8 8 10 11 12 11 10 12 12 10 11 11 12 11 14 14 14 14 15 14 13 12 14 17 15 15 18 19 15 15 14
6 5 6 6 6 6 5 6 5 5 5 5 5 5 5 5 5 5 3 5 5 5 7 7 7 8 10 13 12 11 12 12 12 12 10 10 11 9 14 16 13 15 16 16 16 17 16 15 18 16 14 16 13 14
4 5 6 6 6 5 5 5 5 5 5 5 5 5 5 5 4 4 5 4 5 3 6 7 7 8 9 10 14 11 10 12 11 11 10 11 12 11 11 12 14 13 13 15 16 16 15 14 13 13 13 14 13 13
4 4 4 4 4 5 5 5 5 4 5 4 4 4 4 4 4 4 4 4 5 4 6 8 9 8 10 10 10 12 12 11 11 11 9 9 11 12 12 15 14 14 13 13 14 14 12 13 12 13 11 10 10 10
3 3 4 4 4 4 4 4 4 4 4 4 3 3 4 4 4 4 5 4 5 5 5 7 9 10 9 10 9 10 11 11 10 10 8 11 10 11 9 11 11 13 14 14 15 17 17 17 14 10 10 10 9 8
3 3 3 3 3 3 3 3 3 3 3 4 4 4 4 4 4 4 4 5 4 4 4 6 8 8 10 9 9 10 11 11 11 11 10 11 11 12 11 13 14 14 12 13 16 12 9 7 8 8 8 8 7 7
3 3 3 3 3 4 4 4 4 4 4 4 4 4 4 3 4 5 5 5 5 3 5 7 7 8 10 10 9 10 10 11 11 11 9 11 11 11 9 13 15 13 12 11 9 10 9 8 8 6 6 5 5 4
4 4 3 3 3 3 4 4 4 4 4 4 3 3 3 3 4 4 6 5 4 5 5 6 7 8 9 10 10 9 10 10 9 10 8 10 9 8 11 13 13 10 9 8 9 7 9 6 5 4 4 4 3 3
4 3 4 4 4 3 3 3 4 4 4 4 4 3 3 5 3 5 6 5 7 6 5 5 8 9 9 8 8 8 9 9 8 8 9 10 8 11 12 12 11 9 10 9 6 6 5 5 4 3 4 3 2 2
4 4 4 4 4 4 4 4 4 4 4 4 4 5 3 4 5 6 6 6 6 6 6 5 7 9 9 6 7 8 6 8 10 9 8 9 12 9 7 8 8 7 6 6 5 4 3 3 4 3 3 3 2 2
4 4 4 4 4 4 4 4 4 3 3 4 4 4 5 5 5 4 5 6 6 6 6 6 7 8 8 8 7 5 7 7 10 10 11 10 10 8 6 6 6 6 6 5 5 5 5 4 3 2 2 2 2 2
4 4 4 4 4 4 3 3 3 4 5 5 5 6 5 5 4 5 6 5 6 7 6 7 7 8 6 7 7 6 7 7 10 7 9 10 7 6 6 5 5 5 5 5 5 4 3 3 3 3 2 2 1 -1
4 4 4 4 4 4 3 4 4 4 5 5 5 5 6 4 6 7 7 7 7 5 5 5 6 5 5 6 5 6 8 8 5 8 8 6 5 5 5 5 4 4 3 3 3 3 2 2 1 1 -1 -2 -2 -3
4 4 4 4 4 4 4 4 4 3 3 2 4 5 5 5 4 4 5 5 3 3 4 4 5 6 4 5 5 8 6 6 8 7 6 5 4 3 4 4 4 3 2 2 1 1 0 -0 -1 -2 -2 -3 -3 -4
4 4 4 4 4 4 4 4 3 3 1 3 3 4 4 3 3 3 2 3 2 2 3 4 5 6 5 6 6 7 8 7 6 6 4 3 3 3 2 2 1 1 0 0 -0 -1 -2 -2 -2 -3 -3 -4 -4 -5
3 4 4 4 4 4 3 3 2 1 0 2 0 1 1 2 1 1 1 2 2 2 3 4 6 6 6 6 6 5 6 4 3 3 3 2 2 1 1 1 0 -0 -1 -1 -2 -2 -2 -3 -3 -4 -5 -5 -5 -5
4 4 4 4 4 3 2 2 2 1 2 2 0 -1 -1 -1 -1 -1 -1 0 0 3 4 4 2 2 4 3 2 1 1 0 -0 0 1 1 1 1 -0 -0 -1 -1 -1 -2 -3 -3 -4 -5 -5 -4 -5 -6 -6 -7
4 4 4 3 3 3 2 3 1 2 1 0 -0 -1 -2 -3 -3 -2 -2 -1 1 2 2 0 1 -0 -1 0 -1 -3 -3 -2 -1 -1 -1 0 0 -0 -0 -1 -1 -2 -2 -3 -3 -3 -4 -4 -5 -5 -6 -7 -7 -7
4 4 4 4 5 3 1 2 2 0 -1 -1 -2 -2 -2 -3 -3 -2 -2 -1 -0 -0 -0 -1 -3 -3 -3 -4 -5 -4 -4 -4 -2 -3 -4 -4 -4 -3 -3 -3 -4 -4 -4 -5 -5 -6 -6 -6 -6 -6 -7 -7 -7 -8
4 4 4 4 3 2 2 1 3 1 0 -1 -1 -2 -3 -3 -4 -4 -3 -2 -2 -2 -4 -4 -5 -6 -5 -6 -6 -5 -5 -4 -2 -4 -5 -5 -6 -6 -6 -6 -6 -6 -7 -7 -7 -7 -7 -8 -8 -8 -8 -8 -8 -9
4 3 3 4 3 2 -0 0 1 1 1 0 -0 -1 -2 -3 -4 -5 -5 -3 -4 -5 -6 -6 -6 -6 -7 -7 -7 -7 -7 -7 -7 -6 -6 -7 -7 -7 -8 -8 -8 -8 -8 -9 -9 -10 -10 -10 -10 -10 -10 -11 -11 -11
4 4 4 4 0 -0 -1 -2 -0 -1 0 -1 -2 -2 -4 -6 -7 -6 -5 -7 -7 -7 -7 -6 -7 -7 -7 -8 -8 -8 -8 -9 -9 -9 -10 -10 -10 -10 -10 -10 -10 -10 -11 -11 -11 -12 -12 -13 -12 -12 -12 -12 -12 -12
3 4 0 -1 -3 -3 -3 -1 -2 -1 -2 -3 -3 -3 -5 -6 -5 -5 -8 -7 -8 -8 -8 -8 -8 -9 -9 -9 -10 -10 -10 -10 -10 -10 -11 -12 -12 -13 -13 -13 -13 -12 -13 -13 -14 -14 -15 -15 -14 -14 -14 -14 -14 -15
2 -5 -7 -7 -4 -6 -7 -6 -3 -3 -5 -4 -4 -4 -3 -6 -7 -8 -8 -8 -8 -9 -9 -9 -9 -8 -9 -10 -11 -12 -11 -11 -12 -13 -12 -12 -13 -14 -15 -15 -15 -16 -15 -16 -16 -16 -16 -16 -16 -16 -16 -16 -16 -17
-3 -5 -6 -6 -8 -6 -8 -8 -7 -5 -8 -7 -5 -5 -8 -7 -9 -10 -9 -8 -9 -11 -11 -10 -11 -11 -11 -11 -12 -13 -14 -13 -13 -14 -15 -14 -14 -14 -15 -16 -17 -17 -17 -16 -17 -17 -17 -17 -17 -17 -17 -17 -18 -18
-4 -5 -4 -6 -8 -5 -6 -4 -7 -9 -7 -6 -8 -8 -11 -11 -11 -9 -8 -10 -11 -11 -12 -12 -11 -11 -12 -13 -13 -14 -14 -14 -15 -16 -17 -17 -17 -16 -16 -17 -17 -18 -18 -17 -17 -17 -17 -17 -17 -17 -17 -18 -18 -18
-5 -7 -5 -5 -5 -7 -9 -10 -8 -9 -9 -9 -10 -13 -13 -13 -12 -9 -9 -10 -12 -14 -15 -14 -13 -13 -13 -14 -15 -15 -14 -14 -16 -17 -18 -18 -18 -18 -18 -19 -19 -20 -19 -18 -18 -18 -18 -18 -18 -18 -19 -18 -19 -19
-8 -7 -8 -11 -10 -9 -11 -13 -12 -11 -10 -7 -12 -14 -16 -15 -11 -11 -11 -13 -13 -14 -15 -15 -14 -14 -15 -15 -16 -16 -16 -16 -16 -16 -17 -18 -18 -18 -18 -19 -19 -18 -18 -19 -19 -19 -19 -19 -19 -20 -20 -20 -20 -20
-10 -12 -10 -12 -12 -11 -10 -13 -11 -10 -10 -12 -16 -15 -13 -13 -15 -14 -13 -13 -13 -14 -15 -16 -16 -15 -15 -15 -15 -15 -15 -15 -15 -20 -21 -20 -21 -19 -19 -19 -19 -19 -19 -19 -19 -20 -20 -20 -20 -21 -21 -21 -21 -21
-10 -12 -11 -13 -11 -11 -14 -16 -17 -19 -14 -14 -12 -12 -13 -15 -15 -14 -14 -13 -14 -14 -15 -15 -15 -15 -16 -16 -17 -17 -17 -17 -18 -18 -20 -20 -20 -20 -19 -19 -20 -20 -20 -20 -20 -20 -20 -20 -21 -21 -21 -21 -21 -22
-12 -13 -12 -11 -12 -15 -17 -17 -16 -16 -19 -19 -20 -19 -17 -16 -15 -15 -15 -15 -15 -15 -15 -15 -15 -16 -16 -16 -17 -17 -18 -18 -18 -19 -19 -19 -19 -19 -20 -20 -20 -20 -20 -20 -20 -21 -21 -21 -21 -22 -22 -22 -23 -23
-15 -15 -12 -11 -11 -15 -15 -16 -20 -19 -21 -19 -19 -24 -21 -20 -20 -17 -16 -16 -15 -15 -15 -15 -16 -16 -17 -17 -17 -18 -18 -18 -19 -19 -19 -19 -20 -20 -20 -20 -20 -20 -21 -21 -21 -21 -21 -22 -22 -22 -23 -23 -23 -24
-19 -19 -18 -14 -12 -13 -13 -13 -14 -15 -18 -18 -19 -21 -22 -19 -18 -17 -16 -15 -15 -15 -15 -15 -16 -17 -17 -18 -18 -18 -18 -19 -19 -19 -20 -20 -20 -20 -20 -20 -20 -21 -21 -21 -21 -21 -22 -22 -22 -23 -23 -23 -23 -24
Height
502 500 498 498 501 507 515 524 535 544 555 574 591 608 623 638 652 665 673 678 687 690 687 689 688 684 689 696 709 718 723 723 733 736 738 735 738 725 726 729 731 725 734 742 750 747 734 716 725 725 707 713 714 719
509 508 508 509 512 516 522 530 539 548 565 580 597 612 627 641 654 665 676 682 689 694 687 688 689 689 686 686 699 707 702 707 710 719 728 729 730 737 721 720 725 726 710 714 714 711 702 704 697 701 704 705 712 715
517 512 513 515 518 522 527 536 547 561 574 589 603 618 632 644 655 666 678 686 693 704 695 690 687 687 686 685 686 695 702 695 700 698 711 712 714 719 728 720 714 718 710 705 707 698 699 700 701 703 704 704 708 711
533 527 525 525 528 533 540 549 562 575 586 598 611 624 636 648 660 671 679 687 697 706 697 682 680 684 682 682 684 685 687 690 693 696 705 712 706 702 710 700 704 704 705 705 704 699 702 698 697 698 704 707 710 716
550 547 545 546 549 554 561 569 578 587 598 610 622 634 645 656 666 676 684 689 692 699 691 682 673 674 676 677 680 682 686 689 693 700 707 701 701 703 711 706 703 694 693 697 692 677 678 675 681 694 701 704 708 713
565 565 564 565 568 573 578 585 594 603 612 621 632 642 651 660 668 677 686 688 692 698 702 685 673 670 671 674 677 679 680 687 689 689 694 692 693 694 698 688 677 676 679 680 676 679 689 692 694 694 699 704 712 717
575 576 578 581 584 588 593 598 605 612 620 629 638 646 654 664 671 676 678 677 685 698 691 680 674 669 667 670 673 675 679 681 682 687 692 688 690 691 698 682 669 670 674 680 685 684 692 693 692 698 701 708 715 723
584 585 588 591 595 600 604 610 616 622 629 636 644 649 658 668 675 677 673 672 681 692 688 684 678 673 664 665 666 670 675 679 683 681 690 686 695 696 681 670 668 674 679 684 686 687 685 690 690 706 706 710 718 726
594 595 596 599 603 608 613 619 625 631 637 644 651 659 667 673 675 672 672 678 680 684 685 684 669 661 661 666 669 672 673 677 682 683 683 682 690 676 665 665 668 672 671 675 688 692 693 695 693 704 708 713 717 727
605 605 606 607 611 616 622 627 633 639 645 652 659 662 670 670 670 671 676 680 681 681 679 680 670 659 661 671 676 673 679 677 668 676 680 680 664 672 676 674 675 675 679 684 686 696 693 698 697 700 706 711 718 725
613 614 615 616 619 622 628 634 639 646 652 656 658 662 663 667 668 674 677 679 678 677 676 670 670 667 666 666 672 679 676 675 665 667 667 668 665 673 677 676 677 679 680 682 685 687 690 696 702 706 713 718 724 729
622 623 625 626 628 631 635 642 647 650 652 652 653 657 664 667 675 675 674 676 672 664 665 664 664 663 669 669 673 682 678 682 663 672 666 663 679 682 680 679 679 683 687 687 687 683 694 699 705 709 716 723 729 735
628 631 634 636 637 640 644 648 654 652 651 652 654 659 659 666 660 657 662 662 659 659 660 662 664 667 672 674 681 680 671 671 681 671 672 690 689 686 685 686 684 687 691 689 692 699 696 699 710 715 722 730 735 741
635 638 640 643 644 647 650 648 650 655 657 662 657 659 659 661 664 663 658 657 665 663 662 662 665 665 673 676 680 672 681 681 674 682 695 695 694 691 690 690 688 690 694 691 698 703 707 710 718 723 728 734 740 747
639 642 645 648 650 653 656 658 661 662 665 662 662 662 667 672 671 668 666 664 666 664 662 663 664 664 672 675 679 678 678 686 696 702 707 703 700 698 699 700 700 701 703 706 709 712 716 720 724 731 736 741 746 753
641 645 648 651 654 657 660 661 663 666 668 672 686 686 683 677 679 674 672 667 665 664 663 661 663 667 675 682 685 699 692 714 721 721 715 709 706 706 706 707 707 709 711 716 719 722 726 730 734 741 746 752 757 761
641 643 649 652 658 662 665 668 671 676 682 690 701 705 700 695 693 691 685 680 673 667 672 675 692 703 698 703 719 729 737 740 737 728 720 717 715 715 715 716 718 721 723 725 728 732 736 741 745 749 755 762 766 770
642 647 650 656 660 665 670 675 679 687 700 709 709 712 711 710 706 699 693 685 677 680 688 705 714 726 737 737 747 756 754 748 738 734 730 725 724 724 724 725 728 730 731 735 739 742 746 751 754 760 765 769 772 779
642 648 656 659 662 666 674 681 684 704 717 718 721 719 719 721 719 715 708 701 697 696 705 726 746 759 764 768 768 764 757 753 746 745 742 739 736 735 736 737 739 741 744 748 750 755 758 760 764 769 773 775 779 784
650 656 659 663 666 669 678 689 692 704 718 725 724 725 725 729 728 723 716 712 710 716 740 761 777 782 779 777 773 767 762 754 748 748 751 751 751 750 751 752 754 756 757 760 763 766 769 771 775 778 778 781 784 788
658 662 665 668 670 674 690 698 702 710 717 721 724 725 731 733 733 736 735 735 735 757 774 784 785 786 785 782 777 772 768 763 761 760 764 765 766 764 765 766 767 767 769 773 775 780 780 783 786 786 786 790 792 794
661 663 666 669 676 686 699 706 709 715 718 724 728 731 743 750 755 754 757 759 777 789 790 790 791 789 787 785 783 780 779 775 774 775 775 774 774 776 778 780 779 783 785 789 790 791 793 794 794 795 796 797 798 798
660 664 670 677 690 703 722 713 720 723 731 737 737 742 754 762 764 765 782 791 799 802 799 797 797 796 795 794 792 789 788 786 786 787 789 790 791 793 794 794 795 796 797 800 800 800 801 801 801 801 801 800 800 800
663 676 695 706 711 732 730 736 732 737 744 748 750 759 760 771 774 786 800 807 810 808 805 804 802 801 801 800 800 801 801 800 799 799 801 801 802 805 806 806 806 806 807 807 806 806 806 805 805 804 804 803 802 802
682 712 714 731 733 737 753 758 758 752 770 768 765 771 781 778 793 805 809 812 814 814 813 811 811 810 808 810 811 810 809 808 807 808 810 810 810 811 811 812 812 812 812 810 810 810 809 809 807 806 806 805 804 803
713 732 731 742 750 746 755 756 767 778 770 772 782 785 790 798 811 812 811 818 819 819 818 817 816 816 816 817 816 816 816 815 814 812 818 817 816 815 815 815 815 816 815 814 813 812 811 810 809 808 807 806 805 804
732 746 743 746 747 753 767 774 773 778 786 791 793 803 805 821 824 814 818 821 822 823 822 820 820 820 821 822 822 821 820 819 817 819 821 821 819 819 819 819 819 820 817 816 815 813 812 811 810 808 807 806 805 803
745 748 759 766 764 766 781 791 794 795 794 788 799 816 828 827 819 821 821 824 824 824 823 823 823 824 824 824 825 824 824 823 823 823 824 824 823 823 823 822 822 820 818 817 816 814 813 811 810 809 807 805 804 802
758 762 761 779 778 782 788 797 796 796 798 801 815 821 819 821 824 823 824 824 825 826 826 827 829 828 828 827 827 826 826 825 825 826 827 827 826 826 824 823 822 821 819 818 817 815 814 812 811 809 807 805 803 801
764 765 773 786 787 795 803 803 805 804 802 805 808 815 821 825 826 825 825 826 827 828 829 829 830 830 830 830 830 830 829 828 827 827 827 828 828 827 826 824 823 821 819 818 817 815 814 812 811 809 807 805 803 801
767 769 778 787 798 805 805 803 803 805 808 814 815 822 825 827 829 829 829 829 830 830 831 831 832 832 832 832 831 831 831 831 829 829 829 829 828 827 826 824 822 821 819 818 816 815 813 812 810 808 807 805 803 801
777 785 785 793 799 805 804 805 812 815 820 821 825 828 829 830 835 830 830 831 831 831 832 832 832 832 833 833 832 832 832 831 830 830 830 829 828 827 825 824 822 821 819 818 816 815 813 812 810 808 807 805 803 801
790 792 793 796 800 805 804 805 811 817 823 826 828 830 831 830 832 830 830 830 831 831 831 831 831 832 833 832 832 832 832 831 831 830 830 829 828 826 824 823 821 820 818 817 816 814 813 811 809 808 806 804 802 800
Wind_Speed
10 8 15 20 25 28 33 38 43 31 61 61 59 55 54 56 55 44 8 16 9 1 3 4 5 5 8 14 7 4 6 4 2 5 4 4 4 6 5 3 4 7 7 4 3 2 7 8 6 9 7 3 5 10
4 8 14 17 21 23 34 33 31 58 57 55 52 51 52 50 49 34 7 13 11 2 4 3 7 17 7 22 9 10 6 6 7 4 4 3 2 0 6 8 2 5 5 5 9 7 2 10 4 6 5 4 6 11
33 21 12 16 18 23 33 47 53 52 51 50 50 51 48 46 42 27 16 18 7 3 6 4 6 2 8 12 26 6 2 4 4 3 5 3 5 5 4 6 3 5 4 4 3 5 7 7 4 4 4 5 5 9
36 32 40 43 44 47 48 49 48 45 46 47 48 44 41 40 39 29 15 15 18 2 4 5 10 10 10 16 17 10 3 4 4 2 2 2 3 4 5 3 7 5 6 5 4 5 2 9 11 5 5 5 10 11
32 38 38 38 40 41 44 44 44 44 42 42 40 37 34 34 29 25 17 18 22 2 3 2 3 8 11 17 17 18 9 3 2 2 2 3 1 3 0 1 3 5 7 6 7 8 6 7 11 11 11 11 14 16
26 31 37 39 41 42 42 43 41 39 37 36 32 31 33 37 31 17 2 10 14 14 3 2 4 2 3 16 15 12 9 4 3 3 3 2 2 3 5 6 5 9 6 2 4 3 2 4 5 7 8 13 11 13
23 24 28 31 34 37 37 38 36 34 33 31 28 29 34 35 30 6 5 5 33 19 4 2 3 3 5 5 3 3 4 3 2 3 3 3 2 2 2 4 4 4 5 4 4 8 2 4 4 8 14 14 19 18
22 22 23 26 29 31 33 31 30 32 34 33 31 32 36 30 17 4 7 8 40 7 2 2 3 2 4 3 4 2 3 3 2 3 1 3 2 1 4 5 4 5 6 3 5 3 1 11 16 12 14 16 17 16
19 18 19 23 26 29 31 33 35 33 33 33 33 34 23 6 3 3 5 29 12 4 1 1 2 3 1 1 2 2 1 3 2 3 3 5 3 6 5 7 7 10 8 9 7 8 9 9 16 16 15 15 18 15
20 21 22 22 24 28 31 32 33 32 31 33 31 4 2 5 12 20 8 3 1 1 1 2 2 2 1 1 2 2 1 2 4 3 5 4 5 1 2 3 3 5 7 11 9 7 11 13 14 16 14 12 14 15
21 21 21 24 24 26 36 37 37 37 35 10 3 2 5 22 4 3 2 2 2 3 4 4 7 4 3 2 2 2 1 1 1 3 6 3 2 0 1 4 4 5 8 3 5 7 5 12 13 14 13 13 15 19
21 22 21 23 26 29 35 36 37 17 11 6 7 15 10 3 2 3 3 2 5 6 4 4 3 3 1 2 2 1 2 1 3 0 3 3 3 4 1 6 9 7 4 7 7 14 13 14 13 14 14 13 17 22
20 22 20 19 19 30 44 29 18 8 6 3 2 3 2 3 6 6 8 4 3 1 1 2 2 3 2 2 2 1 2 1 1 2 2 2 5 3 3 2 8 8 8 11 14 13 18 19 20 20 15 20 23 23
16 17 19 18 16 14 13 1 8 10 7 2 0 3 2 2 3 1 2 2 1 1 1 2 2 2 2 2 2 2 0 1 2 4 4 4 6 5 5 5 8 10 8 13 13 13 13 16 17 20 22 23 25 22
12 10 9 11 12 12 10 6 4 6 2 2 3 4 4 3 4 4 2 1 2 1 1 2 2 2 2 3 1 1 3 4 4 4 4 7 6 5 6 7 8 9 9 10 9 11 13 18 19 20 20 23 26 24
12 12 11 15 14 14 11 6 11 7 3 3 7 5 6 5 8 6 7 5 4 4 0 1 3 4 5 3 4 6 3 5 4 5 7 6 5 6 6 8 9 9 10 10 15 17 19 18 19 19 21 20 20 22
15 4 17 18 16 13 11 5 5 4 4 5 4 9 6 2 4 5 5 7 4 2 3 3 6 5 3 4 4 5 4 5 9 8 5 6 6 6 8 9 8 13 13 17 19 20 21 21 23 22 17 15 15 15
9 24 33 31 30 21 5 6 3 4 7 4 3 7 7 6 7 7 8 9 5 3 3 5 4 7 5 4 3 5 5 9 6 7 8 8 9 9 12 11 16 18 19 20 21 21 20 19 18 15 17 17 19 16
32 37 35 27 13 5 3 3 5 5 7 3 4 4 4 6 9 8 8 8 8 7 4 4 7 5 4 4 6 7 7 6 4 6 9 18 21 19 20 23 24 23 23 22 21 19 21 21 17 16 14 14 14 11
39 38 24 16 4 3 4 3 5 5 4 1 1 7 6 6 6 9 12 11 9 4 7 5 5 4 4 5 6 6 6 6 3 8 9 10 19 23 23 20 18 21 22 23 24 22 21 22 21 17 16 13 12 9
19 11 11 11 3 10 4 3 4 3 4 2 2 1 3 5 12 11 9 8 8 5 5 5 5 6 10 12 15 13 15 15 10 8 7 8 17 21 21 22 23 24 22 19 18 20 22 18 16 18 19 16 13 10
7 9 5 4 4 4 4 8 3 1 3 2 2 3 3 3 4 5 4 8 5 5 4 5 7 6 8 12 16 21 19 22 23 22 22 20 10 13 17 20 21 19 21 19 18 17 17 16 15 15 13 10 9 8
8 4 6 9 6 6 2 7 5 5 4 3 3 4 4 3 3 3 4 5 4 8 11 9 11 15 15 16 20 25 23 22 19 19 20 20 21 21 22 22 20 17 15 17 15 15 15 14 15 14 12 12 11 11
7 6 6 5 6 2 3 5 3 3 4 4 3 4 4 3 2 4 4 3 4 11 11 14 11 6 13 17 12 17 18 17 19 21 18 17 17 18 19 20 21 21 16 13 15 16 17 17 16 15 15 14 14 14
7 8 6 6 4 6 6 5 5 5 4 4 4 4 3 3 3 3 2 2 4 6 6 11 12 11 7 7 13 16 18 16 16 16 19 14 12 13 16 17 19 18 17 17 18 16 15 15 15 15 14 14 14 14
8 6 5 3 3 5 2 3 3 2 2 3 3 2 3 3 4 3 2 1 2 4 5 5 5 5 8 11 8 11 10 11 13 18 15 15 14 12 10 10 10 12 16 15 14 13 13 12 13 12 12 13 14 14
6 5 3 4 2 4 4 3 3 4 4 4 2 3 3 5 2 2 2 4 2 4 6 8 8 10 9 10 11 15 17 18 18 16 13 16 16 15 14 11 9 8 11 12 12 12 12 12 12 10 12 14 14 13
3 4 5 4 5 4 4 3 4 3 2 2 3 5 4 4 2 2 2 7 11 10 13 14 13 11 11 10 9 8 9 9 8 9 10 16 17 15 14 13 12 11 11 12 12 10 11 11 11 12 12 13 15 14
4 2 4 6 5 5 5 3 2 2 4 2 3 2 2 2 3 2 4 9 9 9 11 13 13 13 14 14 15 16 15 11 5 5 4 3 6 12 12 12 12 12 12 12 11 10 10 11 11 12 12 12 12 13
2 2 5 3 5 4 2 1 1 1 5 3 3 3 3 3 6 6 9 9 9 10 8 7 6 4 6 6 8 10 12 12 12 8 3 2 4 7 9 11 12 12 11 11 11 10 9 10 11 13 14 14 15 14
1 3 4 4 3 1 3 3 5 6 4 3 5 3 2 2 3 7 8 9 9 9 9 8 7 6 6 6 4 3 6 8 8 7 7 6 6 8 10 11 11 11 10 10 10 10 10 11 13 13 14 14 14 14
4 4 4 4 2 1 1 2 2 3 3 3 2 2 2 3 1 1 2 3 4 5 4 3 3 3 4 4 4 5 5 4 4 3 3 5 8 10 10 9 10 9 9 9 9 10 10 10 10 11 13 13 14 14
3 3 4 4 3 1 2 3 3 2 3 2 2 1 2 3 4 5 4 5 4 3 2 2 4 6 3 2 3 4 4 5 3 3 4 7 10 9 9 9 9 8 8 8 8 9 9 9 10 11 12 13 13 14
Wind_Direction
48 85 91 123 138 151 161 158 166 191 156 160 164 170 174 179 179 179 135 166 181 200 233 5 345 158 158 183 169 168 122 224 96 164 168 189 193 209 158 194 237 174 159 180 112 136 258 153 109 177 209 178 185 176
89 91 129 129 137 145 156 159 168 150 155 157 166 170 172 172 175 169 132 154 154 33 343 333 293 279 243 172 159 183 185 165 175 169 187 135 185 140 149 226 155 254 201 183 192 203 192 198 200 186 168 160 188 167
55 84 133 134 152 152 154 146 142 146 151 163 160 161 162 167 164 166 161 171 145 35 296 263 228 14 297 223 189 149 235 173 182 179 162 186 196 140 164 232 136 257 214 187 130 206 219 217 226 229 197 208 175 170
67 70 81 99 104 111 117 125 134 144 147 146 147 148 153 157 155 160 139 165 171 97 244 231 176 247 258 240 220 213 122 102 103 127 157 171 174 184 196 201 195 194 154 162 280 270 324 252 232 205 189 147 125 133
77 81 90 100 106 111 115 121 125 128 132 138 145 155 161 165 160 163 161 173 184 179 290 293 194 236 240 205 211 210 189 139 140 121 138 212 151 133 171 121 222 188 178 174 215 208 196 230 196 165 165 172 157 140
91 93 98 100 107 113 116 120 124 126 131 139 149 158 164 163 156 135 124 213 204 202 296 259 301 258 231 195 203 199 193 191 182 160 206 199 211 186 186 217 227 195 191 235 228 140 88 83 89 136 140 142 138 135
98 108 112 114 118 120 127 131 131 134 140 143 147 156 156 157 152 145 200 214 187 181 241 266 344 248 213 177 169 171 180 179 163 179 218 162 210 212 186 221 239 192 169 162 154 124 116 192 177 133 124 116 112 113
95 111 121 126 130 130 133 135 135 135 137 134 137 143 159 157 159 241 263 195 179 203 254 198 242 255 219 157 171 149 139 140 224 179 99 156 120 227 251 216 200 145 119 159 169 351 30 121 115 119 121 125 122 125
93 95 119 129 134 137 139 139 138 135 138 143 143 137 132 145 172 214 147 146 138 173 145 243 226 174 185 85 94 61 12 161 125 173 201 151 172 220 219 213 200 186 180 164 127 129 134 145 134 143 141 137 131 141
99 103 113 124 138 147 142 143 142 141 141 138 130 119 145 202 146 117 144 158 82 247 221 274 297 279 57 100 70 130 138 229 164 195 128 204 234 292 318 293 271 130 121 139 127 151 149 159 158 153 154 139 138 144
102 108 103 101 116 130 150 143 140 144 140 146 154 162 143 146 78 27 85 130 197 216 192 247 207 238 1 75 121 23 114 340 349 189 172 207 238 209 346 100 91 122 142 124 151 122 140 148 145 133 128 130 132 133
108 110 111 105 114 121 138 147 139 138 160 204 133 113 140 143 110 162 170 188 213 212 171 175 211 162 99 94 98 68 152 195 214 310 148 182 19 335 319 122 114 106 117 117 121 117 128 128 131 126 127 129 128 122
119 112 109 115 119 126 132 124 102 129 134 15 66 104 179 172 183 198 179 201 212 219 174 151 116 129 91 61 81 173 84 275 327 326 40 23 319 14 46 97 104 107 110 102 101 111 114 110 116 119 111 111 114 112
128 120 118 115 122 131 142 280 25 53 25 359 148 93 13 36 21 334 354 66 111 165 111 112 103 111 119 90 107 127 220 19 61 41 3 343 347 8 36 66 86 85 84 96 95 103 102 103 104 106 112 119 116 113
140 128 115 115 120 128 122 103 58 45 35 4 24 50 47 28 358 347 329 111 3 270 98 100 93 86 58 98 51 95 54 60 36 17 325 330 359 38 50 63 79 86 87 88 97 100 100 105 104 99 100 108 113 116
173 154 166 154 152 141 135 79 47 31 35 49 38 359 346 12 3 10 356 1 355 344 245 55 79 66 47 46 55 17 53 48 357 330 318 328 11 37 60 66 70 78 84 88 90 94 96 96 96 95 94 101 114 130
150 110 144 146 153 152 145 68 32 46 44 40 36 14 354 346 349 352 346 341 310 358 38 35 50 20 347 47 43 19 26 322 319 314 350 9 38 48 68 74 78 88 90 88 88 89 93 99 102 97 95 93 95 109
118 144 150 140 124 102 66 43 72 60 61 21 44 15 29 24 5 7 352 355 14 54 40 54 39 37 38 36 27 350 319 315 320 19 22 30 48 58 69 75 76 79 80 82 85 86 87 90 89 92 99 102 99 100
133 138 135 127 108 98 102 33 53 84 38 43 24 16 51 38 24 19 17 17 39 47 81 53 49 36 21 9 323 313 326 331 339 27 34 35 40 51 58 62 64 66 67 67 70 71 70 71 82 92 98 102 97 98
133 133 128 138 96 66 68 40 69 74 51 131 94 53 59 38 12 26 33 29 39 57 47 53 39 20 349 348 331 330 336 334 59 58 44 36 39 51 50 57 61 66 68 66 63 66 68 63 57 70 84 91 94 85
128 141 174 143 80 65 73 26 60 90 140 95 153 50 79 37 37 34 34 12 49 40 64 41 33 35 24 23 19 28 32 43 49 53 57 55 44 54 55 54 60 60 61 59 63 58 58 56 55 64 73 73 74 75
109 124 109 70 81 64 70 23 92 94 74 92 55 53 47 33 17 21 29 35 55 32 19 36 29 28 35 31 32 36 45 56 58 58 55 56 50 47 46 48 58 60 57 56 60 60 57 53 56 60 60 54 51 44
108 74 59 34 68 52 323 7 57 16 60 5 30 44 37 42 34 32 63 38 48 11 20 29 50 47 53 47 50 46 46 57 57 55 55 59 59 57 57 51 52 61 62 53 58 60 56 52 48 49 46 42 36 30
58 55 50 52 47 81 15 22 23 37 38 26 47 45 42 31 35 60 68 47 11 9 27 33 42 58 55 48 43 37 38 60 67 59 56 71 72 64 66 65 61 59 62 65 64 62 56 52 49 48 44 41 35 28
65 5 64 17 3 60 44 26 9 42 50 19 63 33 8 18 61 59 62 43 20 18 16 31 49 52 66 64 54 49 44 58 67 68 42 58 80 84 73 68 62 54 50 53 49 47 44 40 38 37 34 27 17 10
72 0 52 48 356 76 52 74 52 72 42 63 53 44 36 70 65 62 63 64 13 11 10 14 40 66 59 54 59 47 39 59 76 74 54 52 56 64 65 59 52 42 33 33 29 28 25 22 20 17 13 9 4 356
63 34 28 33 79 93 69 52 61 71 59 37 3 33 56 68 83 86 101 36 82 41 49 62 74 78 82 78 73 75 73 72 80 89 85 69 64 61 58 57 46 22 11 12 13 16 14 7 2 359 352 349 351 349
100 55 75 326 58 34 98 59 52 56 32 32 71 42 104 150 129 30 62 124 116 100 84 80 88 95 93 90 95 93 83 81 80 84 74 65 63 61 55 45 35 24 26 24 22 18 12 4 359 356 353 348 345 344
43 347 76 37 46 48 42 78 92 50 355 76 105 108 104 68 4 18 94 134 134 120 105 100 94 98 95 88 80 72 64 60 79 65 58 32 13 25 25 20 18 18 15 18 23 28 19 18 17 13 3 357 353 357
9 38 92 68 62 53 317 70 99 289 34 65 91 93 70 45 27 93 121 129 128 121 120 123 132 122 100 84 79 67 54 46 46 60 96 48 9 7 7 7 3 2 4 5 8 11 11 11 11 12 15 15 14 12
14 67 74 59 85 272 173 138 100 84 53 49 40 86 103 117 80 69 91 105 115 122 125 119 110 101 92 78 67 59 45 34 41 59 63 45 27 5 355 354 359 1 2 4 6 8 9 7 7 9 8 8 8 3
30 59 118 101 111 307 12 59 77 76 15 62 24 48 30 54 58 263 158 166 171 172 173 176 172 157 126 84 62 50 42 37 39 44 25 13 359 353 355 357 355 359 1 2 2 3 4 5 4 3 -0 358 357 354
62 54 59 90 80 95 274 82 37 67 38 61 19 134 168 155 189 200 159 156 148 148 156 176 169 158 135 74 45 38 37 30 32 26 4 350 344 347 348 349 351 353 353 356 359 0 0 1 0 357 354 351 350 347